Погода в Бектауате

Погода в Бектауате : погода сейчас, прогноз погоды и архив. Всё, что Вы хотите узнать о погоде в Бектауате!

Поиск расширенной информации на нашем сайте:

Другие новости

Новости СМИ2

Главная страница сайта

Новости сайта

03.07.2017

Напоминаем, что на нашем специализированном сайте Метеоцентр.Азия вы можете получить высокодетализированные автоматические прогнозы погоды по пунктам России, СНГ и мира в авиационном формате (включающие направление и скорость ветра, видимость, явления погоды, количество и форму облачности, нижнюю и верхнюю границу облачности).


Погода в Бектауате - сегодня

Время (UTC), дата Ветер
(°,м/с) 
Видим.   Явления Облачность Т
(°С)
Тd
(°С)
f(%) Тe
(°С)
Pmin
(гПа)
dP
(гПа)
Po
(мм)
O2
(г/м3)
Тmin Tmax R s Состояние
почвы
09 15.06.18 050 (СВ) 20000 м    10/0 верхняя 
[Cs]
+20.5 +4.1 34 +21  1011.4  -0.1  706  264           
12 15.06.18 360 (С) 20000 м    9/0 средняя, верхняя 
[Ac trans|Ci ing]
+22.2 +5.1 33 +22  1010.7  -0.2  706  262           
15 15.06.18 тихо ()   20000 м    8/0 средняя, верхняя 
[Ac lent|Ci]
+21 +8.2 44 +21  1011.5  0.6  707  263    +23.3       
18 15.06.18 тихо ()   н/о    ясно 
+18 +5 42 +18  1013.1  0.7  685  258    +23.3       
21 15.06.18 тихо ()   н/о    ясно 
+16.6 +3.6 42 +17  1013.4  -0.1  707  268           
00 16.06.18 340 (С) 20000 м    ясно 
+15.8 +3.6 44 +17  1014.1  0.5  707  269           
06 16.06.18 320 (СЗ) 20000 м    ясно 
+26.4 +6.4 28 +26  1011  -0.7  707  259  +14.8         
09 16.06.18 250 (З) 20000 м    4/4 1000 м 
[Cu hum]
+29.2 +7.1 25 +29  1008.9  -1.3  706  256           
12 16.06.18 тихо ()   20000 м    8/3 1000 м средняя 
[Cu hum|Ac cast]
+27.6 +9.9 33 +30  1008.4  -0.8  705  256           
15 16.06.18 230 (ЮЗ) 20000 м    ясно 
+23.8 +4.8 29 +24  1009.6  0.2  706  261    +30.2       
18 16.06.18 тихо ()   н/о    ясно 
+16.5 +5 46 +17  1011.1  -0.2  705  267    +30.2       
21 16.06.18 тихо ()   н/о    ясно 
+14.3 +5.6 56 +14  1009.9  -1.6  704  269           
00 17.06.18 тихо ()   20000 м    ясно 
+13.6 +2.9 48 +14  1009.1  -1  703  269           
03 17.06.18 тихо ()   20000 м    ясно 
+24.3 +6.8 33 +24  1005.7  -0.6  703  259           
06 17.06.18 200 (Ю) 20000 м    3/3 1000 м 
[Cu hum]
+29 +5.8 23 +29  1003.1  -1.5  702  255  +12.6         
09 17.06.18 140 (ЮВ) 20000 м    4/4 1000 м 
[Cu med, cong]
+29.7 +5.6 22 +30  1001  -1.8  701  254           
12 17.06.18 тихо ()   20000 м    3/3 1000 м 
[Cu med, cong]
+29.8 +5.5 22 +30  1000.1  -0.8  700  253           
15 17.06.18 тихо ()   20000 м    ясно 
+23.7 +6.1 32 +24  1001.1  -0.4  700  258    +31.3       
18 17.06.18 тихо ()   н/о    ясно 
+17.6 +5.9 46 +18  1001.8  -0.7  699  264    +31.3       
21 17.06.18 тихо ()   н/о    ясно 
+16.1 +5.9 51 +16  1000.9  -1.2  698  265           
00 18.06.18 тихо ()   20000 м    3/0 средняя 
[Ac cast]
+14.8 +6.1 56 +15  1000.6  -0.6  698  266           
03 18.06.18 320 (СЗ) 20000 м  в посл. час ливневой дождь  8/3 600 м кучево-дожд., средняя 
[Cb cap|Ac trans]
+22 +8.1 41 +22  1000.2  1.3  699  259           
06 18.06.18 050 (СВ) 20000 м  {ливн. осадки}  ясно 
+26.1 +6.1 28 +26  998.3  -0.9  698  256  +13.8    0.0     
09 18.06.18 230 (ЮЗ) 20000 м    8/8 1000 м 
[Cu med, cong]
+31.3 +5.5 20 +31  995.6  -1.4  697  251           
12 18.06.18 270 (З) 20000 м    8/8 1000 м 
[Cu med, cong]
+28.1 +5.8 24 +28  996.4  0.1  697  254           
Время (UTC), дата Ветер
(°,м/с) 
Видим.   Явления Облачность Т
(°С)
Тd
(°С)
f(%) Тe
(°С)
Pmin
(гПа)
dP
(гПа)
Po
(мм)
O2
(г/м3)
Тmin Tmax R s Состояние
почвы

Для получения пояснительной информации подведите курсор к названию столбца.

ПОГОДА в Бектауате - архив

Всё, что Вы хотите узнать о погоде в Бектауате - удобно и подробно!

Выберите нужную дату (начиная с 1 января 2015* года) и нажмите кнопку "Найти".
Будут отображены архивные сводки погоды по пункту Бектауата, начиная с указанной даты.


Отображать данные в формате CSV (для использования в таблицах Excel)


Внимание! Наш архив погоды предназначен исключительно для личного некоммерческого использования в познавательных целях. Если Вам необходимы официальные справки о состоянии погоды (для производственных, юридических, коммерческих и т.п. целей), обращайтесь в органы Росгидромета.

*Примечание: данная дата относится к архиву по метеостанциям СССР (Россия, СНГ, Балтия).
Архив по метеостанциям Зарубежной Европы и Азии (кроме Китая) хранится 10 дней, по другим регионам земного шара (Китай, Африка, Америка, Австралия, Океания) - 1 день.

Бектауата - район местоположения метеостанции


Название, широта, долгота, высота метеостанции:
Бектауата 47.4°ш. 74.8°д. 520 м над ур. моря [Казахстан]

Дополнительная информация

В oтличие oт бoльшинства пoгoдных сайтoв мы публикуем пoдрoбную метеoинфoрмацию в детальнoм прoфессиoнальнoм фoрмате.

Характеристики температуры и влажнoсти вoздуха измеряются на высoте 2 м в тени вдали oт зданий и деревьев.
Скoрoсть ветра измеряется на высoте 10 м (на урoвне рoста челoвека скoрoсть ветра ниже в 1.5-2 раза). Если метеoстанция нахoдится в гoрoде или в лесу, тo скoрoсть ветра занижена на 2-4 м/с пo сравнению с oткрытым местoм. Скoрoсть ветра над акватoриями крупных рек и oзёр, а также на вершинах хoлмoв на 2-5 м/с выше, чем в oбычных услoвиях.
Атмoсфернoе давление в разных тoчках местнoсти мoжет значительнo oтличаться oт давления на метеoстанции, в зависимoсти oт услoвий рельефа (при пoдъёме на 10 м давление пoнижается примернo на 1 мм рт.ст.).